Weather History for KBNW - October, 2012

Change the Weather History Date:

Thursday, October 4, 2012

  Actual Average Record
Temperature  
Mean Temperature 56 °F -  
Max Temperature 66 °F 68 °F 91 °F (2005)
Min Temperature 45 °F 40 °F 26 °F (1987)
Degree Days  
Heating Degree Days 10    
Growing Degree Days 6 (Base 50)    
Moisture  
Dew Point 37 °F    
Average Humidity 53    
Maximum Humidity 85    
Minimum Humidity 33    
Precipitation  
Precipitation 0.05 in - - ()
Sea Level Pressure  
Sea Level Pressure 30.12 in    
Wind  
Wind Speed 13 mph (WNW)    
Max Wind Speed 30 mph    
Max Gust Speed 45 mph    
Visibility 10 miles    
Events Rain    
Averages and records for this station are not official NWS values.
T = Trace of Precipitation, MM = Missing Value Source: NWS Daily Summary

Daily Weather History Graph

Daily Weather History Graph

Search for Another Location

Airport or City:

Trip Planner

Search our weather history database for the weather conditions in past years. The results will help you decide how hot, cold, wet, or windy it might be!

Date:

Astronomy

Oct. 04, 2012 Rise Set
Actual Time 7:16 AM CDT 6:50 PM CDT
Civil Twilight 6:48 AM CDT 7:18 PM CDT
Nautical Twilight 6:15 AM CDT 7:51 PM CDT
Astronomical Twilight 5:43 AM CDT 8:23 PM CDT
Moon 9:22 PM CDT (10/4) 11:38 AM CDT (10/4)
Length of Visible Light 12h 30m
Length of Day
11h 34m
Waning Gibbous, 82% of the Moon is Illuminated
Oct 4
Waning Gibbous
Oct 8
Last Quarter
Oct 15
New
Oct 21
First Quarter
Oct 29
Full

Hourly Weather History & Observations

Time (CDT) Temp. Windchill Dew Point Humidity Pressure Visibility Wind Dir Wind Speed Gust Speed Precip Events Conditions
12:15 AM 64.2 °F - 41.4 °F 43% 29.94 in 10.0 mi South 9.2 mph - N/A   Clear
12:35 AM 65.8 °F - 41.4 °F 41% 29.94 in 10.0 mi South 11.5 mph 17.3 mph N/A   Clear
12:55 AM 66.2 °F - 41.7 °F 41% 29.94 in 10.0 mi South 11.5 mph 17.3 mph N/A   Scattered Clouds
1:15 AM 66.2 °F - 41.9 °F 41% 29.94 in 10.0 mi South 10.4 mph 16.1 mph N/A   Mostly Cloudy
1:35 AM 65.7 °F - 42.1 °F 42% 29.94 in 10.0 mi South 9.2 mph - N/A   Scattered Clouds
1:55 AM 65.3 °F - 42.6 °F 44% 29.94 in 10.0 mi South 9.2 mph - N/A   Clear
2:15 AM 65.3 °F - 42.8 °F 44% 29.93 in 10.0 mi South 9.2 mph - N/A   Clear
2:35 AM 65.5 °F - 43.0 °F 44% 29.94 in 10.0 mi SSW 10.4 mph - N/A   Clear
2:55 AM 64.0 °F - 43.3 °F 47% 29.95 in 10.0 mi SW 11.5 mph - N/A   Clear
3:15 AM 62.4 °F - 42.8 °F 49% 29.96 in 10.0 mi West 15.0 mph 20.7 mph N/A   Clear
3:35 AM 58.5 °F - 39.7 °F 50% 29.97 in 10.0 mi WNW 17.3 mph 24.2 mph N/A   Clear
3:55 AM 56.3 °F - 40.1 °F 55% 29.98 in 10.0 mi WNW 16.1 mph 24.2 mph N/A   Clear
4:15 AM 54.5 °F - 40.5 °F 59% 30.01 in 10.0 mi WNW 18.4 mph 25.3 mph N/A   Clear
4:35 AM 54.0 °F - 40.8 °F 61% 30.01 in 10.0 mi WNW 17.3 mph 21.9 mph N/A   Clear
4:55 AM 54.0 °F - 41.0 °F 62% 30.02 in 10.0 mi WNW 17.3 mph 25.3 mph N/A   Scattered Clouds
5:15 AM 53.8 °F - 41.0 °F 62% 30.03 in 10.0 mi WNW 16.1 mph 26.5 mph N/A   Scattered Clouds
5:35 AM 53.2 °F - 41.2 °F 64% 30.03 in 10.0 mi WNW 15.0 mph 24.2 mph N/A Rain Light Rain
5:55 AM 52.9 °F - 40.6 °F 63% 30.04 in 10.0 mi WNW 19.6 mph 34.5 mph N/A   Scattered Clouds
6:15 AM 50.4 °F - 43.5 °F 77% 30.00 in 10.0 mi NW 29.9 mph 36.8 mph 0.01 in Rain Rain
6:35 AM 48.2 °F - 43.9 °F 85% 30.01 in 10.0 mi West 19.6 mph 44.9 mph 0.04 in Rain Rain
6:55 AM 48.6 °F - 44.2 °F 85% 30.04 in 10.0 mi NW 12.7 mph 20.7 mph 0.04 in Rain Rain
7:15 AM 48.6 °F - 44.1 °F 84% 30.07 in 10.0 mi WSW 12.7 mph 25.3 mph 0.01 in Rain Light Rain
7:35 AM 48.7 °F - 43.3 °F 82% 30.07 in 10.0 mi West 6.9 mph - 0.01 in   Mostly Cloudy
7:55 AM 49.1 °F - 43.2 °F 80% 30.08 in 10.0 mi West 12.7 mph 18.4 mph 0.01 in   Light Drizzle
8:15 AM 49.1 °F - 41.2 °F 74% 30.10 in 10.0 mi West 16.1 mph 19.6 mph N/A   Scattered Clouds
8:35 AM 49.1 °F - 40.5 °F 72% 30.11 in 10.0 mi WNW 17.3 mph 25.3 mph N/A   Clear
8:55 AM 48.9 °F - 39.4 °F 70% 30.11 in 10.0 mi WNW 17.3 mph 24.2 mph N/A   Scattered Clouds
9:15 AM 49.3 °F - 39.4 °F 69% 30.12 in 10.0 mi West 15.0 mph 26.5 mph N/A   Clear
9:35 AM 50.2 °F - 39.4 °F 66% 30.13 in 10.0 mi West 18.4 mph 26.5 mph N/A   Scattered Clouds
9:55 AM 49.1 °F - 39.0 °F 68% 30.14 in 10.0 mi WNW 12.7 mph 21.9 mph N/A   Scattered Clouds
10:15 AM 48.7 °F - 38.3 °F 67% 30.14 in 10.0 mi WNW 16.1 mph 21.9 mph N/A   Mostly Cloudy
10:35 AM 48.6 °F - 39.6 °F 71% 30.16 in 10.0 mi WNW 16.1 mph 21.9 mph N/A Rain Light Rain
10:55 AM 49.1 °F - 39.0 °F 68% 30.16 in 10.0 mi West 17.3 mph 24.2 mph N/A   Mostly Cloudy
11:15 AM 50.0 °F - 37.9 °F 63% 30.17 in 10.0 mi WNW 18.4 mph 25.3 mph N/A   Scattered Clouds
11:35 AM 50.5 °F - 37.0 °F 60% 30.17 in 10.0 mi WNW 16.1 mph 25.3 mph N/A   Scattered Clouds
11:55 AM 51.8 °F - 37.4 °F 58% 30.18 in 10.0 mi NW 18.4 mph 23.0 mph N/A   Scattered Clouds
12:15 PM 51.8 °F - 36.7 °F 56% 30.19 in 10.0 mi WNW 12.7 mph 26.5 mph N/A   Scattered Clouds
12:35 PM 54.9 °F - 36.5 °F 50% 30.19 in 10.0 mi NW 17.3 mph 25.3 mph N/A   Scattered Clouds
12:55 PM 55.0 °F - 35.8 °F 48% 30.19 in 10.0 mi WNW 21.9 mph 27.6 mph N/A   Scattered Clouds
1:15 PM 56.1 °F - 35.6 °F 46% 30.19 in 10.0 mi WNW 16.1 mph 24.2 mph N/A   Scattered Clouds
1:35 PM 57.2 °F - 34.9 °F 43% 30.18 in 10.0 mi WNW 18.4 mph 29.9 mph N/A   Clear
1:55 PM 57.7 °F - 33.8 °F 41% 30.18 in 10.0 mi NW 15.0 mph 29.9 mph N/A   Clear
2:15 PM 58.6 °F - 32.7 °F 38% 30.18 in 10.0 mi WNW 18.4 mph 28.8 mph N/A   Clear
2:55 PM 59.2 °F - 32.2 °F 36% 30.18 in 10.0 mi NW 18.4 mph 27.6 mph N/A   Clear
3:15 PM 59.4 °F - 32.2 °F 36% 30.18 in 10.0 mi WNW 15.0 mph 23.0 mph N/A   Clear
3:35 PM 59.9 °F - 31.6 °F 34% 30.18 in 10.0 mi WNW 20.7 mph 26.5 mph N/A   Clear
4:15 PM 59.7 °F - 31.1 °F 34% 30.18 in 10.0 mi WNW 12.7 mph 23.0 mph N/A   Clear
4:35 PM 59.9 °F - 30.9 °F 33% 30.18 in 10.0 mi NW 15.0 mph 23.0 mph N/A   Clear
4:55 PM 59.2 °F - 30.9 °F 34% 30.19 in 10.0 mi WNW 18.4 mph 24.2 mph N/A   Clear
5:15 PM 58.5 °F - 30.4 °F 34% 30.19 in 10.0 mi WNW 15.0 mph 21.9 mph N/A   Clear
5:35 PM 57.6 °F - 30.0 °F 35% 30.20 in 10.0 mi NW 12.7 mph 23.0 mph N/A   Clear
5:55 PM 56.8 °F - 30.2 °F 36% 30.20 in 10.0 mi NW 12.7 mph 21.9 mph N/A   Clear
6:15 PM 55.8 °F - 30.4 °F 38% 30.21 in 10.0 mi WNW 15.0 mph 21.9 mph N/A   Clear
6:35 PM 54.7 °F - 30.6 °F 40% 30.21 in 10.0 mi NW 11.5 mph - N/A   Clear
6:55 PM 53.8 °F - 30.6 °F 41% 30.21 in 10.0 mi NW 12.7 mph - N/A   Clear
7:15 PM 53.1 °F - 30.9 °F 43% 30.21 in 10.0 mi NW 15.0 mph - N/A   Clear
7:35 PM 52.7 °F - 31.1 °F 44% 30.22 in 10.0 mi NW 9.2 mph - N/A   Clear
8:15 PM 52.0 °F - 31.1 °F 45% 30.24 in 10.0 mi NW 8.1 mph - N/A   Clear
8:35 PM 51.8 °F - 31.1 °F 45% 30.24 in 10.0 mi NW 10.4 mph - N/A   Clear
9:15 PM 50.7 °F - 31.3 °F 47% 30.26 in 10.0 mi NW 9.2 mph - N/A   Clear
9:35 PM 50.0 °F - 31.1 °F 48% 30.26 in 10.0 mi NW 9.2 mph - N/A   Clear
9:55 PM 49.1 °F - 31.1 °F 50% 30.26 in 10.0 mi NW 8.1 mph - N/A   Clear
10:15 PM 47.8 °F - 31.3 °F 53% 30.25 in 10.0 mi NW 8.1 mph - N/A   Clear
10:35 PM 47.7 °F - 31.3 °F 53% 30.26 in 10.0 mi NW 9.2 mph - N/A   Clear
10:55 PM 46.8 °F - 31.1 °F 55% 30.27 in 10.0 mi NW 9.2 mph - N/A   Clear
11:15 PM 45.9 °F 40.8 °F 31.1 °F 56% 30.27 in 10.0 mi NW 10.4 mph 17.3 mph N/A   Clear
11:35 PM 45.9 °F 40.0 °F 30.7 °F 56% 30.26 in 10.0 mi NW 12.7 mph 17.3 mph N/A   Clear
11:55 PM 45.5 °F 39.6 °F 30.6 °F 56% 30.27 in 10.0 mi NW 12.7 mph 16.1 mph N/A   Clear